Weather observations for the past three days for
Mesquite, Mesquite Metro Airport
Metric (Imperial)
Date Time (cdt) Wind (kph) Vis. (km) Weather Sky Cond. Temperature (ºC) Relative Humidity Wind Chill (°C) Heat Index (°C) Pressure Precipitation (cm)
Air Dwpt 6 hour altimeter (cm) sea level (mb) 1 hr 3 hr 6 hr
Max. Min.
03 00:55 S 7 16.09 Fair CLR 13.3 8.8 26.3 13.2 74% 76.53 0.0
03 00:30 S 7 16.09 Fair CLR 13.5 8.2 71% 76.53 0.0
03 00:15 S 7 16.09 Fair CLR 14 8.1 68% 76.5 0.0
02 23:55 S 6 16.09 Fair CLR 14.2 8.5 69% 76.53 0.0
02 23:35 S 7 16.09 Fair CLR 14.3 8.6 69% 76.5 0.0
02 23:15 S 7 16.09 Fair CLR 14.4 8.7 69% 76.5 0.0
02 22:55 S 9 16.09 Fair CLR 14.7 8.8 68% 76.53 0.0
02 22:35 S 9 16.09 Fair CLR 15 8.8 67% 76.5 0.0
02 22:15 S 7 16.09 Fair CLR 15.3 9 66% 76.5 0.0
02 21:55 S 7 16.09 Fair CLR 16 9 63% 76.5 0.0
02 21:35 SE 6 16.09 Fair CLR 16.2 8.3 60% 76.48 0.0
02 21:15 SE 6 16.09 Fair CLR 17 7.6 54% 76.45 0.0
02 20:55 Calm 16.09 Fair CLR 17.9 7.7 51% 76.45 0.0
02 19:50 S 9 16.09 Fair CLR 18 8 52% 76.45 0.0
02 18:50 N 7 16.09 Fair CLR 27 4 23% 26 76.43 0.0
02 17:50 NW 9 16.09 Fair CLR 25 4 26% 25 76.43 0.0
02 16:50 NW 6 16.09 Fair CLR 26 4 24% 26 76.45 0.0
02 15:50 N 7 16.09 Fair CLR 26 4 24% 26 76.5 0.0
02 14:50 NE 11 16.09 Fair CLR 24 4 27% 25 76.56 0.0
02 12:50 N 9 16.09 Fair CLR 23 4 29% 76.66 0.0
02 11:50 N 13 16.09 Fair CLR 22 4 31% 76.71 0.0
02 10:50 NE 6 16.09 Fair CLR 21 7 40% 76.68 0.0
02 09:50 NW 6 16.09 Fair CLR 19 8 49% 76.68 0.0
02 08:50 NW 9 16.09 Fair CLR 15 10 72% 76.63 0.0
02 07:51 Calm 16.09 Fair CLR 13 11 88% 76.61 0.0
02 06:55 Calm 16.09 Fair CLR 9 8 94% 76.53 0.0
02 06:35 NW 6 16.09 Fair CLR 9.7 7.5 86% 76.5 0.0
02 06:15 NW 6 16.09 Fair CLR 10.2 8 86% 76.45 0.0
02 05:55 W 6 16.09 Fair CLR 10.1 7.8 86% 76.48 0.0
02 05:35 Calm 16.09 Fair CLR 10.1 7.6 85% 76.45 0.0
02 05:15 NW 7 16.09 Fair CLR 11 8.6 85% 76.43 0.0
02 04:55 NW 7 16.09 Fair CLR 10.9 8.6 86% 76.43 0.0
02 04:35 NW 6 16.09 Fair CLR 11 8.4 84% 76.43 0.0
02 04:15 W 9 16.09 Fair CLR 11 8.2 83% 76.43 0.0
02 03:55 W 9 16.09 Fair CLR 10.7 8 84% 76.43 0.0
02 03:35 W 6 16.09 Fair CLR 10.5 8 85% 76.43 0.0
02 03:15 NW 7 16.09 Fair CLR 10.5 7.7 83% 76.43 0.0
02 02:55 W 6 16.09 Fair CLR 10.7 7.7 82% 76.43 0.0
02 02:35 W 6 16.09 Fair CLR 11 7.7 80% 76.43 0.0
02 02:15 Calm 16.09 Fair CLR 11 7.6 80% 76.43 0.0
02 01:55 W 6 16.09 Fair CLR 11.2 8 81% 76.45 0.0
02 01:35 W 7 16.09 Fair CLR 11.5 8.4 81% 76.45 0.0
02 01:15 Calm 16.09 Fair CLR 11 7.2 78% 76.45 0.0
02 00:55 Calm 16.09 Fair CLR 11.5 8 15.5 11.5 79% 76.43 0.0
02 00:35 Calm 16.09 Fair CLR 11.5 7.7 78% 76.45 0.0
02 00:15 Calm 16.09 Fair CLR 12 7.7 75% 76.45 0.0
01 23:55 Calm 16.09 Partly Cloudy SCT120 12.6 8.5 76% 76.45 0.0
01 23:35 Calm 16.09 Mostly Cloudy BKN120 13.1 8.8 75% 76.43 0.0
01 23:15 Calm 16.09 Mostly Cloudy SCT060 SCT075 BKN120 13.5 9.1 75% 76.43 0.0
01 22:55 Calm 16.09 Overcast SCT060 OVC120 14 8.8 71% 76.43 0.0
01 22:35 Calm 16.09 Overcast OVC110 14.1 8.8 71% 76.43 0.0
01 22:15 Calm 16.09 Mostly Cloudy BKN110 14 9.1 73% 76.4 0.0
01 21:55 Calm 16.09 Mostly Cloudy BKN100 14 9.2 73% 76.4 0.0
01 21:35 Calm 16.09 Overcast OVC100 14.2 10 76% 76.38 0.0
01 21:15 Calm 16.09 Overcast OVC100 14.3 9.9 75% 76.38 0.0
01 20:55 E 6 16.09 Overcast SCT070 OVC100 14.5 9.8 74% 76.33 0.0
01 19:50 Calm 16.09 NULL NULL 15 10 72% 76.28 0.0
01 18:50 NE 9 16.09 Light Rain OVC090 16 9 63% 76.23 0.0
01 17:50 NE 9 16.09 Overcast OVC100 16 8 59% 76.17 0.0
01 16:50 N 9 16.09 Overcast OVC080 16 8 59% 76.17 0.0
01 15:50 N 13 16.09 Overcast SCT070 OVC090 17 8 56% 76.17 0.0
01 14:50 NE 13 16.09 Overcast OVC065 17 8 56% 76.23 0.0
01 13:50 E 20 G 35 16.09 Overcast OVC060 17 6 49% 76.17 0.0
01 11:50 NE 11 16.09 Overcast OVC060 15 9 68% 76.3 0.0
01 09:50 NE 13 16.09 Overcast OVC055 14 11 82% 76.33 0.0
01 08:50 NE 9 16.09 Overcast OVC055 14 11 82% 76.28 0.0
01 07:50 Calm 16.09 Overcast BKN055 OVC065 14 11 82% 76.28 0.0
01 06:35 E 6 16.09 Mostly Cloudy SCT049 SCT090 BKN110 13.8 11.3 85% 76.15 0.0
01 06:15 NE 6 16.09 Overcast BKN049 BKN060 OVC080 14 11.4 84% 76.17 0.0
01 05:55 NE 7 16.09 Overcast OVC049 14.1 11.3 83% 76.17 0.0
01 05:35 NE 9 16.09 Overcast OVC047 14.2 11.2 82% 76.15 0.0
01 05:15 NE 6 16.09 Overcast OVC045 14.3 11.1 81% 76.17 0.0
01 04:55 NE 6 16.09 Overcast OVC045 14.3 10.8 80% 76.17 0.0
01 04:35 NE 7 16.09 Overcast OVC041 14.5 10.8 79% 76.17 0.0
01 04:15 E 11 16.09 Overcast OVC039 14.5 11 80% 76.15 0.0
01 03:55 NE 9 16.09 Overcast OVC039 14.3 11.1 81% 76.12 0.0
01 03:35 NE 9 16.09 Overcast OVC039 14.2 11.2 82% 76.15 0.0
01 03:15 N 13 G 26 16.09 Overcast OVC037 14.5 11.4 82% 76.15 0.0
01 02:55 N 9 16.09 Overcast OVC035 14.5 11.6 83% 76.2 0.0
01 02:35 NE 7 16.09 Overcast OVC035 14.5 11.6 83% 76.15 0.0
01 02:15 N 7 16.09 Overcast OVC035 14.8 11.7 82% 76.2 0.0
01 01:55 NE 6 16.09 Overcast OVC035 14.8 11.7 82% 76.23 0.0
01 01:35 NE 6 16.09 Overcast OVC035 14.8 11.6 81% 76.25 0.0
01 01:15 NE 9 16.09 Overcast OVC035 14.8 11.7 82% 76.23 0.0
01 00:55 NE 7 16.09 Overcast OVC035 14.8 11.8 16.8 14.8 82% 76.25 0.0
01 00:35 NE 6 16.09 Overcast OVC035 14.8 11.8 82% 76.25 0.0
01 00:15 NE 7 16.09 Overcast OVC033 14.8 11.8 82% 76.25 0.0
30 23:55 NE 7 16.09 Overcast OVC029 15 11.8 81% 76.25 0.0
30 23:35 NE 11 16.09 Overcast OVC029 15.2 11.7 80% 76.25 0.0
30 23:15 NE 7 16.09 Overcast OVC029 15.5 11.8 79% 76.23 0.0
30 22:55 N 11 16.09 Overcast OVC029 15.7 11.7 77% 76.2 0.0
30 22:35 NE 9 16.09 Overcast OVC031 15.7 11.8 78% 76.2 0.0
30 22:15 NE 7 16.09 Overcast OVC029 15.8 11.8 77% 76.17 0.0
30 21:55 NE 9 16.09 Overcast OVC027 16 11.5 75% 76.15 0.0
30 21:35 NE 11 16.09 Overcast OVC025 16 11.4 74% 76.15 0.0
30 21:15 E 13 16.09 Overcast OVC025 16 11.6 75% 76.12 0.0
30 20:55 NE 9 16.09 Overcast OVC025 16 11.8 76% 76.15 0.0
30 19:50 N 11 16.09 Overcast OVC025 16 12 77% 76.1 0.0
30 17:50 N 7 16.09 Overcast OVC025 17 13 77% 76 0.0
30 16:50 NE 7 16.09 Overcast BKN023 OVC031 17 13 77% 76.07 0.0
30 15:50 NE 13 16.09 Overcast OVC024 17 13 77% 76.02 0.0
30 14:50 N 11 16.09 Overcast OVC018 17 13 77% 76.1 0.0
30 13:50 NE 11 16.09 Overcast BKN006 BKN010 OVC015 16 14 88% 76.02 0.0
30 12:50 E 17 6.44 Fog/Mist BKN008 BKN036 OVC090 16 15 94% 76.07 0.0
30 11:50 N 7 4.02 Light Rain Fog/Mist BKN005 BKN012 OVC020 16 15 94% 76.25 0.0
30 10:50 E 6 3.22 Light Rain Fog/Mist OVC014 17 14 83% 76.23 0.0
30 09:50 NE 7 16.09 Overcast OVC014 17 14 83% 76.12 0.0
30 08:50 NE 11 16.09 Overcast BKN016 OVC029 16 14 88% 76.05 0.0
30 07:50 NE 7 16.09 Overcast SCT014 OVC031 15 14 94% 76.07 0.0
30 06:50 N 7 16.09 Partly Cloudy SCT030 14 13 94% 76.05 0.0
30 06:35 NE 7 16.09 Fair CLR 14.5 13.2 92% 76.05 0.0
30 06:15 NE 9 16.09 Fair CLR 14.7 13.3 91% 76.05 0.0
30 05:55 NE 9 16.09 Fair CLR 14.7 13.3 91% 76.05 0.0
30 05:35 NE 9 16.09 Fair CLR 15 13.5 91% 76.05 0.0
30 05:15 NE 7 16.09 Fair CLR 15.2 13.7 91% 76.05 0.0
30 04:55 N 9 16.09 Partly Cloudy SCT017 SCT021 SCT060 15.5 14 91% 76.05 0.0
30 04:35 N 11 16.09 Overcast BKN017 BKN021 OVC060 15.7 14 90% 76.05 0.0
30 04:15 N 7 16.09 Overcast OVC017 16.2 14.3 89% 76.05 0.0
30 03:55 NE 7 16.09 Overcast SCT014 BKN019 OVC042 16.5 14.6 89% 76.05 0.0
30 03:35 NE 7 16.09 Overcast SCT015 OVC042 16.5 14.5 88% 76.05 0.0
30 03:15 NE 9 16.09 Overcast SCT018 BKN042 OVC060 16.6 14.5 88% 76.05 0.0
30 02:55 NE 9 16.09 Overcast SCT013 BKN060 OVC070 16.8 14.6 87% 76.05 0.0
30 02:35 NE 7 16.09 Overcast SCT013 SCT040 OVC050 17 14.7 86% 76.05 0.0
30 02:15 NE 9 16.09 Overcast SCT020 BKN039 OVC050 17 14.8 87% 76.07 0.0
30 01:55 N 9 16.09 Overcast SCT022 OVC037 17 14.8 87% 76.07 0.0
30 01:35 N 9 16.09 Overcast OVC037 17 14.8 87% 76.1 0.0
Date Time (cdt) Wind (kph) Vis. (km) Weather Sky Cond. Air Dwpt Max. Min. Relative Humidity Wind Chill (°C) Heat Index (°C) altimeter (cm) sea level (mb) 1 hr 3 hr 6 hr
6 hour
Temperature (ºC) Pressure Precipitation (cm)